Weather observations for the past three days for
Jackson, Jackson International Airport
Imperial (Metric)
Date Time (cdt) Wind (mph) Vis. (mi.) Weather Sky Cond. Temperature (ºF) Relative Humidity Wind Chill (°F) Heat Index (°F) Pressure Precipitation (in)
Air Dwpt 6 hour altimeter (in) sea level (mb) 1 hr 3 hr 6 hr
Max. Min.
25 11:54 SW 3 10.00 Fair CLR 91.9 73.9 56% 102 29.98 1014.7
25 10:54 SW 5 10.00 Fair CLR 91 75 59% 102 29.98 1014.7
25 09:54 Vrbl 3 10.00 Fair CLR 88 73.9 63% 97 29.99 1014.9
25 08:54 Vrbl 3 10.00 Fair CLR 86 75 70% 95 29.99 1015.0
25 07:54 SW 5 10.00 Fair CLR 81 75 82% 87 29.99 1015.0
25 06:54 Calm 10.00 Fair CLR 75.9 73.9 78.1 73 94% 75 29.98 1014.6
25 05:54 Calm 8.00 Fair CLR 73 72 96% 29.96 1014.0
25 04:54 Calm 10.00 Fair CLR 73.9 73 97% 29.95 1013.7
25 03:54 Calm 10.00 Fair CLR 75.9 73 91% 76 29.94 1013.3
25 02:54 Calm 10.00 Fair CLR 75 73 94% 73 29.94 1013.3
25 01:54 Calm 10.00 Fair CLR 77 73 88% 78 29.94 1013.3
25 00:54 Calm 10.00 Fair CLR 78.1 73 84.9 75.9 85% 81 29.94 1013.5
24 23:54 Calm 10.00 Fair CLR 77 73 88% 78 29.94 1013.3
24 22:54 Calm 10.00 Fair CLR 78.1 73 85% 81 29.94 1013.2
24 21:54 Calm 10.00 Fair CLR 79 72 79% 82 29.93 1012.9
24 20:54 Calm 10.00 Fair CLR 81 72 74% 85 29.92 1012.6
24 19:54 SW 3 10.00 A Few Clouds FEW120 82 72 72% 87 29.93 1012.9
24 17:54 SW 3 10.00 Mostly Cloudy SCT032 BKN070 BKN090 84 72 67% 90 29.92 1012.8
24 16:54 SW 5 10.00 Mostly Cloudy SCT032 BKN070 BKN090 82.9 73.9 74% 89 29.93 1013.1
24 15:54 W 6 5.00 Mostly Cloudy with Haze SCT032 BKN070 BKN090 84.9 77 77% 95 29.94 1013.4 0.02 0.02
24 14:54 Calm 10.00 Partly Cloudy SCT055 93 78.1 62% 109 29.94 1013.3
24 13:54 Vrbl 6 10.00 Partly Cloudy SCT055 93 77 60% 107 29.97 1014.1
24 12:54 SW 10 10.00 Partly Cloudy SCT055 90 77 91 80.1 66% 103 29.98 1014.8
24 11:54 W 10 10.00 Partly Cloudy SCT055 88 75 66% 98 30 1015.4
24 10:54 SW 8 10.00 Mostly Cloudy FEW055 BKN070 84 75 74% 92 29.99 1015.2
24 09:54 S 7 10.00 Mostly Cloudy FEW048 SCT055 BKN070 82 75.9 82% 89 29.99 1014.9
24 08:54 SE 6 10.00 Light Rain BKN049 BKN055 OVC080 82 75 79% 89 29.99 1015.1
24 07:54 W 5 10.00 Overcast FEW055 OVC075 82 73.9 77% 88 29.97 1014.2
24 06:54 S 3 10.00 Partly Cloudy SCT110 80.1 73 81 77 79% 84 29.95 1013.6
24 05:54 SW 3 10.00 Mostly Cloudy BKN110 78.1 72 82% 80 29.94 1013.3
24 04:54 S 5 10.00 A Few Clouds FEW110 79 72 79% 82 29.93 1013.1
24 03:54 Calm 10.00 Overcast OVC100 80.1 73 79% 84 29.93 1012.8
24 02:54 Calm 10.00 Partly Cloudy SCT100 78.1 72 82% 80 29.93 1012.8
24 01:54 Calm 10.00 Fair CLR 78.1 73 85% 81 29.93 1013.0
24 00:54 Calm 10.00 Fair CLR 79 73 93.9 78.1 82% 82 29.93 1013.1
23 23:54 Calm 10.00 Fair CLR 79 72 79% 82 29.94 1013.2
23 22:54 Calm 10.00 Fair CLR 81 72 74% 85 29.93 1013.0
23 21:54 Calm 10.00 Fair CLR 82 72 72% 87 29.92 1012.4
23 20:54 Calm 10.00 A Few Clouds FEW060 84.9 71.1 63% 90 29.91 1012.2
23 19:54 NW 5 10.00 A Few Clouds FEW055 91 69.1 49% 96 29.9 1011.8
23 18:54 W 5 10.00 A Few Clouds FEW055 93.9 70 97 93 46% 100 29.9 1012.0
23 17:54 W 6 10.00 A Few Clouds FEW060 95 69.1 43% 101 29.9 1012.1
23 16:54 Vrbl 6 10.00 Partly Cloudy FEW055 SCT085 96.1 70 43% 103 29.92 1012.4
23 15:54 NW 7 10.00 Partly Cloudy SCT055 95 69.1 43% 101 29.93 1012.9
23 14:54 Calm 10.00 Partly Cloudy SCT055 95 69.1 43% 101 29.95 1013.5
23 13:54 W 7 10.00 A Few Clouds FEW050 93.9 70 46% 100 29.97 1014.3
23 12:54 SW 6 10.00 A Few Clouds FEW050 91.9 70 93.9 75.9 49% 98 29.99 1014.9
23 11:54 Calm 10.00 Fair CLR 91 72 54% 99 30 1015.5
23 10:54 SW 6 10.00 Fair CLR 89.1 73 59% 97 30.01 1015.6
23 09:54 Vrbl 7 10.00 Fair CLR 89.1 73.9 61% 98 30.01 1015.6
23 08:54 W 6 10.00 Fair CLR 84.9 73 68% 92 30 1015.5
23 07:54 SW 5 10.00 Fair CLR 81 73 77% 86 30 1015.5
23 06:54 SW 3 10.00 Fair CLR 75.9 72 79 73 88% 76 30 1015.5
23 05:54 Calm 10.00 Fair CLR 73.9 70 88% 30 1015.3
23 04:54 S 3 10.00 Fair CLR 75 70 84% 75 29.98 1014.8
23 03:54 Calm 10.00 Fair CLR 75 70 84% 75 29.98 1014.7
23 02:54 S 3 10.00 Fair CLR 75.9 70 82% 77 29.98 1014.8
23 01:54 S 3 10.00 Fair CLR 75.9 70 82% 77 30 1015.4
23 00:54 Calm 10.00 Fair CLR 77 71.1 90 75 82% 79 30.01 1015.6
22 23:54 Calm 10.00 Fair CLR 75.9 70 82% 77 30.01 1015.7
22 22:54 Calm 10.00 Partly Cloudy SCT250 78.1 70 76% 80 30.01 1015.8
22 21:54 Calm 10.00 Mostly Cloudy BKN250 80.1 70 71% 83 30 1015.3
22 20:54 Calm 10.00 Mostly Cloudy FEW060 BKN250 82 70 67% 86 29.98 1014.8
22 19:54 Calm 10.00 Mostly Cloudy FEW060 BKN250 86 70 59% 91 29.98 1014.6
22 18:54 SW 3 10.00 Mostly Cloudy FEW065 BKN250 90 70 95 90 52% 95 29.98 1014.7
22 17:54 SW 6 10.00 A Few Clouds FEW065 FEW250 93 64.9 40% 95 29.98 1014.6
22 15:54 S 6 10.00 A Few Clouds FEW065 93.9 64.9 38% 96 30 1015.5
22 14:54 Calm 10.00 Partly Cloudy SCT065 93 64 38% 95 30.02 1016.1
22 13:54 Calm 10.00 Partly Cloudy SCT065 93 64.9 40% 95 30.04 1016.9
Date Time (cdt) Wind (mph) Vis. (mi.) Weather Sky Cond. Air Dwpt Max. Min. Relative Humidity Wind Chill (°F) Heat Index (°F) altimeter (in) sea level (mb) 1 hr 3 hr 6 hr
6 hour
Temperature (ºF) Pressure Precipitation (in)